| time (UTC) | temp F | wind direction | speed MPH | gust MPH | rain 1hr in | rain 24hr in | rain mn in | humidity % | barometer mb |
| 20260506191117 | 60 | 184 | 2.0 | 13.0 | 0.00 | 0.00 | 0.00 | 78 | 1009.0 |
| 20260506190004 | 60 | 158 | 1.0 | 8.0 | 0.00 | 0.00 | 0.00 | 77 | 1008.8 |
| 20260506185621 | 60 | 160 | 1.0 | 8.0 | 0.00 | 0.00 | 0.00 | 78 | 1008.8 |
| 20260506184504 | 60 | 192 | 1.0 | 9.0 | 0.00 | 0.00 | 0.00 | 78 | 1008.6 |
| 20260506183603 | 61 | 156 | 0.0 | 9.0 | 0.00 | 0.00 | 0.00 | 77 | 1008.6 |
| 20260506182704 | 61 | 177 | 2.0 | 8.0 | 0.00 | 0.00 | 0.00 | 77 | 1008.6 |
| 20260506181804 | 61 | 285 | 2.0 | 8.0 | 0.00 | 0.00 | 0.00 | 77 | 1008.6 |
| 20260506180904 | 62 | 274 | 3.0 | 9.0 | 0.00 | 0.00 | 0.00 | 77 | 1008.5 |
| 20260506180005 | 62 | 265 | 1.0 | 9.0 | 0.00 | 0.00 | 0.00 | 76 | 1008.5 |
| 20260506175617 | 62 | 158 | 1.0 | 4.0 | 0.00 | 0.00 | 0.00 | 76 | 1008.5 |
| 20260506174504 | 62 | 248 | 7.0 | 19.0 | 0.00 | 0.00 | 0.00 | 76 | 1008.4 |
| 20260506173603 | 62 | 236 | 3.0 | 14.0 | 0.00 | 0.00 | 0.00 | 76 | 1008.6 |
| 20260506172704 | 62 | 272 | 4.0 | 9.0 | 0.00 | 0.00 | 0.00 | 76 | 1008.4 |
| 20260506172022 | 62 | 263 | 3.0 | 9.0 | 0.00 | 0.00 | 0.00 | 77 | 1008.5 |
| 20260506170903 | 62 | 280 | 2.0 | 7.0 | 0.00 | 0.00 | 0.00 | 77 | 1008.4 |
| 20260506170004 | 62 | 279 | 5.0 | 13.0 | 0.00 | 0.00 | 0.00 | 76 | 1008.6 |
| 20260506165404 | 62 | 269 | 4.0 | 14.0 | 0.00 | 0.00 | 0.00 | 76 | 1008.5 |
| 20260506164504 | 63 | 268 | 3.0 | 10.0 | 0.00 | 0.00 | 0.00 | 75 | 1008.6 |
| 20260506163603 | 63 | 274 | 4.0 | 9.0 | 0.00 | 0.00 | 0.00 | 74 | 1008.5 |
| 20260506162703 | 63 | 270 | 2.0 | 8.0 | 0.00 | 0.00 | 0.00 | 73 | 1008.7 |
| 20260506161803 | 63 | 271 | 4.0 | 8.0 | 0.00 | 0.00 | 0.00 | 73 | 1008.8 |
| 20260506161119 | 64 | 261 | 2.0 | 7.0 | 0.00 | 0.00 | 0.00 | 73 | 1009.0 |
| 20260506160004 | 64 | 276 | 4.0 | 18.0 | 0.00 | 0.00 | 0.00 | 72 | 1008.9 |
| 20260506155403 | 64 | 280 | 4.0 | 10.0 | 0.00 | 0.00 | 0.00 | 73 | 1008.9 |
| 20260506154504 | 63 | 271 | 5.0 | 13.0 | 0.00 | 0.00 | 0.00 | 72 | 1009.1 |
| 20260506153603 | 63 | 263 | 3.0 | 10.0 | 0.00 | 0.00 | 0.00 | 72 | 1009.1 |
| 20260506152703 | 64 | 251 | 4.0 | 20.0 | 0.00 | 0.00 | 0.00 | 72 | 1009.0 |
| 20260506151803 | 64 | 256 | 5.0 | 12.0 | 0.00 | 0.00 | 0.00 | 71 | 1009.0 |
| 20260506150904 | 64 | 280 | 4.0 | 13.0 | 0.00 | 0.00 | 0.00 | 71 | 1009.0 |
| 20260506150222 | 64 | 269 | 5.0 | 13.0 | 0.00 | 0.00 | 0.00 | 72 | 1009.1 |
| 20260506145403 | 64 | 264 | 6.0 | 21.0 | 0.00 | 0.00 | 0.00 | 71 | 1009.1 |
| 20260506144504 | 64 | 258 | 2.0 | 21.0 | 0.00 | 0.00 | 0.00 | 71 | 1009.2 |
| 20260506143603 | 64 | 265 | 1.0 | 4.0 | 0.00 | 0.00 | 0.00 | 72 | 1009.0 |
| 20260506142703 | 64 | 278 | 3.0 | 13.0 | 0.00 | 0.00 | 0.00 | 71 | 1009.2 |
| 20260506142018 | 64 | 308 | 1.0 | 5.0 | 0.00 | 0.00 | 0.00 | 72 | 1009.3 |
| 20260506140904 | 64 | 309 | 1.0 | 5.0 | 0.00 | 0.00 | 0.00 | 73 | 1009.4 |
| 20260506140004 | 64 | 313 | 2.0 | 7.0 | 0.00 | 0.00 | 0.00 | 71 | 1009.3 |
| 20260506135404 | 64 | 284 | 5.0 | 13.0 | 0.00 | 0.00 | 0.00 | 71 | 1009.4 |
| 20260506134504 | 64 | 274 | 4.0 | 14.0 | 0.00 | 0.00 | 0.00 | 72 | 1009.5 |
| 20260506133603 | 63 | 242 | 3.0 | 9.0 | 0.00 | 0.00 | 0.00 | 71 | 1009.6 |
| 20260506132704 | 63 | 265 | 3.0 | 9.0 | 0.00 | 0.00 | 0.00 | 72 | 1009.7 |
| 20260506132019 | 63 | 239 | 2.0 | 9.0 | 0.00 | 0.00 | 0.00 | 72 | 1009.7 |
| 20260506130904 | 63 | 201 | 3.0 | 13.0 | 0.00 | 0.00 | 0.00 | 71 | 1009.8 |
| 20260506130005 | 63 | 197 | 3.0 | 13.0 | 0.00 | 0.00 | 0.00 | 71 | 1009.9 |
| 20260506125620 | 63 | 243 | 2.0 | 11.0 | 0.00 | 0.00 | 0.00 | 71 | 1009.9 |
| 20260506124718 | 63 | 187 | 4.0 | 11.0 | 0.00 | 0.00 | 0.00 | 72 | 1010.0 |
| 20260506123603 | 63 | 183 | 4.0 | 13.0 | 0.00 | 0.00 | 0.00 | 71 | 1010.1 |
| 20260506122917 | 64 | 210 | 3.0 | 12.0 | 0.00 | 0.00 | 0.00 | 71 | 1010.0 |
| 20260506121804 | 64 | 164 | 1.0 | 9.0 | 0.00 | 0.00 | 0.00 | 71 | 1010.1 |
| 20260506121117 | 64 | 163 | 2.0 | 9.0 | 0.00 | 0.00 | 0.00 | 70 | 1010.0 |
| 20260506120004 | 64 | 156 | 3.0 | 10.0 | 0.00 | 0.00 | 0.00 | 70 | 1010.2 |
| 20260506115404 | 64 | 158 | 3.0 | 11.0 | 0.00 | 0.00 | 0.00 | 70 | 1010.1 |
| 20260506114504 | 64 | 161 | 6.0 | 12.0 | 0.00 | 0.00 | 0.00 | 71 | 1010.2 |
| 20260506113603 | 64 | 157 | 5.0 | 19.0 | 0.00 | 0.00 | 0.00 | 70 | 1010.2 |
| 20260506112703 | 64 | 160 | 7.0 | 19.0 | 0.00 | 0.00 | 0.00 | 70 | 1010.2 |
| 20260506111804 | 64 | 158 | 7.0 | 15.0 | 0.00 | 0.00 | 0.00 | 69 | 1010.3 |
| 20260506110904 | 66 | 164 | 5.0 | 16.0 | 0.00 | 0.00 | 0.00 | 68 | 1010.4 |
| 20260506110220 | 67 | 193 | 3.0 | 8.0 | 0.00 | 0.00 | 0.00 | 70 | 1010.4 |
| 20260506105403 | 66 | 230 | 4.0 | 9.0 | 0.00 | 0.00 | 0.00 | 66 | 1010.4 |
| 20260506104504 | 66 | 218 | 4.0 | 11.0 | 0.00 | 0.00 | 0.00 | 69 | 1010.5 |
| 20260506103603 | 64 | 195 | 6.0 | 15.0 | 0.00 | 0.00 | 0.00 | 73 | 1010.7 |
| 20260506102703 | 65 | 218 | 4.0 | 15.0 | 0.00 | 0.00 | 0.00 | 71 | 1010.7 |
| 20260506101804 | 66 | 215 | 5.0 | 15.0 | 0.00 | 0.00 | 0.00 | 70 | 1010.7 |
| 20260506100904 | 66 | 262 | 6.0 | 13.0 | 0.00 | 0.00 | 0.00 | 72 | 1010.7 |
| 20260506100004 | 65 | 269 | 6.0 | 13.0 | 0.00 | 0.00 | 0.00 | 73 | 1010.8 |
| 20260506095403 | 64 | 267 | 5.0 | 10.0 | 0.00 | 0.00 | 0.00 | 73 | 1010.7 |
| 20260506094504 | 65 | 277 | 5.0 | 11.0 | 0.00 | 0.00 | 0.00 | 72 | 1010.7 |
| 20260506093603 | 65 | 268 | 5.0 | 11.0 | 0.00 | 0.00 | 0.00 | 71 | 1010.6 |
| 20260506092704 | 66 | 285 | 4.0 | 12.0 | 0.00 | 0.00 | 0.00 | 70 | 1010.6 |
| 20260506091804 | 66 | 295 | 5.0 | 13.0 | 0.00 | 0.00 | 0.00 | 71 | 1010.5 |
| 20260506090904 | 66 | 286 | 5.0 | 12.0 | 0.00 | 0.00 | 0.00 | 72 | 1010.5 |
| 20260506090004 | 66 | 273 | 5.0 | 10.0 | 0.00 | 0.00 | 0.00 | 71 | 1010.4 |
| 20260506085404 | 66 | 267 | 6.0 | 12.0 | 0.00 | 0.00 | 0.00 | 71 | 1010.5 |
| 20260506084504 | 65 | 278 | 7.0 | 14.0 | 0.00 | 0.00 | 0.00 | 72 | 1010.4 |
| 20260506083603 | 64 | 275 | 7.0 | 16.0 | 0.00 | 0.00 | 0.00 | 74 | 1010.5 |
| 20260506082704 | 64 | 278 | 6.0 | 16.0 | 0.00 | 0.00 | 0.00 | 74 | 1010.5 |
| 20260506081804 | 64 | 285 | 5.0 | 14.0 | 0.00 | 0.00 | 0.00 | 74 | 1010.6 |
| 20260506080904 | 63 | 280 | 5.0 | 14.0 | 0.00 | 0.00 | 0.00 | 75 | 1010.6 |
| 20260506072703 | 62 | 184 | 5.0 | 14.0 | 0.00 | 0.00 | 0.00 | 75 | 1010.8 |
| 20260506071803 | 63 | 208 | 2.0 | 9.0 | 0.00 | 0.00 | 0.00 | 75 | 1010.6 |
| 20260506071120 | 63 | 177 | 3.0 | 10.0 | 0.00 | 0.00 | 0.00 | 74 | 1010.6 |
| 20260506070217 | 63 | 209 | 4.0 | 9.0 | 0.00 | 0.00 | 0.00 | 74 | 1010.5 |
| 20260506061804 | 62 | 308 | 1.0 | 5.0 | 0.00 | 0.00 | 0.00 | 77 | 1010.4 |
| 20260506060903 | 61 | 315 | 1.0 | 7.0 | 0.00 | 0.00 | 0.00 | 78 | 1010.4 |
| 20260506060218 | 60 | 287 | 0.0 | 2.0 | 0.00 | 0.00 | 0.00 | 80 | 1010.5 |
| 20260506050904 | 59 | 286 | 3.0 | 7.0 | 0.00 | 0.00 | 0.00 | 80 | 1010.3 |
| 20260506044717 | 59 | 268 | 5.0 | 12.0 | 0.00 | 0.00 | 0.00 | 80 | 1010.2 |
| 20260506043820 | 58 | 265 | 6.0 | 12.0 | 0.00 | 0.00 | 0.00 | 80 | 1010.2 |
| 20260506042917 | 58 | 266 | 6.0 | 14.0 | 0.00 | 0.00 | 0.00 | 81 | 1010.2 |
| 20260506041804 | 58 | 274 | 2.0 | 13.0 | 0.00 | 0.00 | 0.00 | 82 | 1010.3 |
| 20260506040904 | 57 | 265 | 1.0 | 9.0 | 0.00 | 0.00 | 0.00 | 82 | 1010.2 |
| 20260506040004 | 57 | 276 | 2.0 | 6.0 | 0.00 | 0.00 | 0.00 | 83 | 1010.2 |
| 20260506035403 | 57 | 273 | 1.0 | 7.0 | 0.00 | 0.00 | 0.00 | 83 | 1010.2 |
| 20260506034504 | 57 | 266 | 0.0 | 7.0 | 0.00 | 0.00 | 0.00 | 82 | 1010.1 |
| 20260506033603 | 57 | 275 | 2.0 | 7.0 | 0.00 | 0.00 | 0.00 | 82 | 1010.0 |
| 20260506032703 | 58 | 277 | 3.0 | 9.0 | 0.00 | 0.00 | 0.00 | 81 | 1010.1 |
| 20260506031804 | 58 | 271 | 6.0 | 11.0 | 0.00 | 0.00 | 0.00 | 81 | 1010.1 |
| 20260506030903 | 58 | 260 | 8.0 | 14.0 | 0.00 | 0.00 | 0.00 | 81 | 1010.1 |
| 20260506030004 | 58 | 260 | 7.0 | 14.0 | 0.00 | 0.00 | 0.00 | 81 | 1010.2 |
| 20260506025403 | 58 | 270 | 6.0 | 12.0 | 0.00 | 0.00 | 0.00 | 81 | 1010.4 |
| 20260506024719 | 58 | 271 | 5.0 | 10.0 | 0.00 | 0.00 | 0.00 | 82 | 1010.5 |
| 20260506023603 | 58 | 272 | 3.0 | 8.0 | 0.00 | 0.00 | 0.00 | 81 | 1010.7 |
| 20260506022919 | 58 | 281 | 2.0 | 7.0 | 0.00 | 0.00 | 0.00 | 81 | 1010.6 |
| 20260506021804 | 58 | 247 | 5.0 | 15.0 | 0.00 | 0.00 | 0.00 | 80 | 1010.6 |
| 20260506021118 | 58 | 248 | 3.0 | 15.0 | 0.00 | 0.00 | 0.00 | 81 | 1010.5 |
| 20260506020004 | 58 | 269 | 3.0 | 10.0 | 0.00 | 0.00 | 0.00 | 81 | 1010.6 |
| 20260506015404 | 58 | 261 | 4.0 | 10.0 | 0.00 | 0.00 | 0.00 | 81 | 1010.6 |
| 20260506014504 | 58 | 254 | 3.0 | 15.0 | 0.00 | 0.00 | 0.00 | 80 | 1010.4 |
| 20260506013603 | 58 | 212 | 3.0 | 12.0 | 0.00 | 0.00 | 0.00 | 80 | 1010.4 |
| 20260506012703 | 58 | 247 | 3.0 | 13.0 | 0.00 | 0.00 | 0.00 | 80 | 1010.4 |
| 20260506011804 | 58 | 264 | 2.0 | 7.0 | 0.00 | 0.00 | 0.00 | 80 | 1010.3 |
| 20260506010903 | 58 | 266 | 0.0 | 7.0 | 0.00 | 0.00 | 0.00 | 81 | 1010.3 |
| 20260506010004 | 58 | 262 | 2.0 | 6.0 | 0.00 | 0.00 | 0.00 | 80 | 1010.3 |
| 20260506005403 | 58 | 275 | 3.0 | 10.0 | 0.00 | 0.00 | 0.00 | 80 | 1010.3 |
| 20260506004504 | 58 | 271 | 4.0 | 9.0 | 0.00 | 0.00 | 0.00 | 80 | 1010.4 |
| 20260506003603 | 58 | 250 | 6.0 | 12.0 | 0.00 | 0.00 | 0.00 | 79 | 1010.4 |
| 20260506002704 | 58 | 232 | 6.0 | 13.0 | 0.00 | 0.00 | 0.00 | 79 | 1010.2 |
| 20260506001804 | 58 | 216 | 7.0 | 13.0 | 0.00 | 0.00 | 0.00 | 80 | 1010.1 |
| 20260506000903 | 58 | 229 | 8.0 | 19.0 | 0.00 | 0.00 | 0.00 | 80 | 1010.0 |
| 20260506000222 | 58 | 250 | 7.0 | 16.0 | 0.00 | 0.00 | 0.00 | 80 | 1010.2 |
| 20260505235403 | 58 | 258 | 9.0 | 20.0 | 0.00 | 0.00 | 0.00 | 79 | 1010.3 |
| 20260505234504 | 58 | 266 | 12.0 | 20.0 | 0.00 | 0.00 | 0.00 | 79 | 1010.2 |
| 20260505233603 | 58 | 250 | 8.0 | 16.0 | 0.00 | 0.00 | 0.00 | 79 | 1010.2 |
| 20260505232704 | 58 | 251 | 11.0 | 24.0 | 0.00 | 0.00 | 0.00 | 79 | 1010.1 |
| 20260505231803 | 58 | 262 | 14.0 | 20.0 | 0.00 | 0.00 | 0.00 | 79 | 1010.4 |
| 20260505230904 | 58 | 265 | 12.0 | 24.0 | 0.00 | 0.00 | 0.00 | 79 | 1010.2 |
| 20260505230004 | 58 | 272 | 13.0 | 27.0 | 0.00 | 0.00 | 0.00 | 79 | 1010.2 |
| 20260505225619 | 58 | 272 | 13.0 | 27.0 | 0.00 | 0.00 | 0.00 | 79 | 1010.1 |
| 20260505224503 | 58 | 273 | 12.0 | 23.0 | 0.00 | 0.00 | 0.00 | 79 | 1010.1 |
| 20260505223819 | 58 | 270 | 12.0 | 22.0 | 0.00 | 0.00 | 0.00 | 80 | 1009.9 |
| 20260505222921 | 58 | 273 | 12.0 | 22.0 | 0.00 | 0.00 | 0.00 | 80 | 1009.9 |
| 20260505221803 | 58 | 263 | 12.0 | 19.0 | 0.00 | 0.00 | 0.00 | 80 | 1010.0 |
| 20260505220903 | 58 | 262 | 12.0 | 20.0 | 0.00 | 0.00 | 0.00 | 79 | 1010.1 |
| 20260505220233 | 58 | 260 | 11.0 | 18.0 | 0.00 | 0.00 | 0.00 | 79 | 1010.2 |
| 20260505215404 | 58 | 259 | 9.0 | 15.0 | 0.00 | 0.00 | 0.00 | 79 | 1010.3 |
| 20260505214503 | 58 | 281 | 8.0 | 20.0 | 0.00 | 0.00 | 0.00 | 79 | 1010.5 |
| 20260505213603 | 59 | 277 | 8.0 | 20.0 | 0.00 | 0.00 | 0.00 | 80 | 1010.7 |
| 20260505212704 | 58 | 280 | 5.0 | 11.0 | 0.00 | 0.00 | 0.00 | 81 | 1010.8 |
| 20260505211804 | 58 | 276 | 7.0 | 13.0 | 0.00 | 0.00 | 0.00 | 81 | 1010.8 |
| 20260505210903 | 58 | 275 | 6.0 | 13.0 | 0.00 | 0.00 | 0.00 | 81 | 1010.9 |
| 20260505210219 | 58 | 284 | 5.0 | 10.0 | 0.00 | 0.00 | 0.00 | 81 | 1010.9 |
| 20260505205620 | 58 | 281 | 5.0 | 19.0 | 0.00 | 0.00 | 0.00 | 81 | 1011.0 |
| 20260505204504 | 58 | 270 | 6.0 | 19.0 | 0.00 | 0.00 | 0.00 | 80 | 1011.0 |
| 20260505203604 | 58 | 274 | 3.0 | 8.0 | 0.00 | 0.00 | 0.00 | 81 | 1011.0 |
| 20260505202704 | 58 | 278 | 3.0 | 9.0 | 0.00 | 0.00 | 0.00 | 81 | 1011.1 |
| 20260505201804 | 58 | 278 | 6.0 | 12.0 | 0.00 | 0.00 | 0.00 | 81 | 1011.1 |
| 20260505200903 | 58 | 285 | 4.0 | 8.0 | 0.00 | 0.00 | 0.00 | 81 | 1011.1 |
| 20260505200219 | 58 | 297 | 3.0 | 9.0 | 0.00 | 0.00 | 0.00 | 80 | 1011.1 |
| 20260505195621 | 58 | 289 | 4.0 | 9.0 | 0.00 | 0.00 | 0.00 | 80 | 1011.2 |
| 20260505194503 | 58 | 273 | 5.0 | 10.0 | 0.00 | 0.00 | 0.00 | 79 | 1011.3 |
| 20260505193603 | 58 | 273 | 6.0 | 11.0 | 0.00 | 0.00 | 0.00 | 79 | 1011.2 |
| 20260505192918 | 58 | 283 | 5.0 | 12.0 | 0.00 | 0.00 | 0.00 | 79 | 1011.2 |
| 20260505191804 | 58 | 289 | 5.0 | 10.0 | 0.00 | 0.00 | 0.00 | 79 | 1011.1 |